User: anonymous   Login
Location: Newark
(44.9333°N, 0.5667°E)
Time: 14:39:04
(UTC+00:00)
Language:

UWE-3 - Orbit

View from above orbital plane
View from above orbital plane
View from above satellite
View from above satellite

Ground track
Ground track

The orbit data is extracted from the following two-line orbital elements,

1 39446U 13066AG  20048.94618544 +.00000184 +00000-0 +31125-4 0  9996
2 39446 097.5916 045.3727 0069557 344.2296 015.6749 14.78494574334763
Epoch (UTC): 17 February 2020 22:42:30
Eccentricity: 0.0069557
inclination: 97.5916°
perigee height: 585 km
apogee height: 683 km
right ascension of ascending node: 45.3727°
argument of perigee: 344.2296°
revolutions per day: 14.78494574
mean anomaly at epoch: 15.6749°
orbit number at epoch: 33476

The dashed part of the orbit path shows where the satellite is in the earth's shadow,  

DLR